Location: Demmingen
(48.6757°N, 10.4375°E)
Time: 20:03:01
(UTC+00:00)

Cosmos 1733 Rocket - Pass Details

Date: 23 May 2024
Orbit: 600 x 623 km, 82.5° (Epoch: 23 June)

Event Time Altitude Azimuth Distance (km) Brightness Sun altitude
Rises 00:24:43 0° 344° (NNW) 2,867 7.4 -19.0°
Reaches altitude 10° 00:27:01 10° 338° (NNW) 1,960 6.3 -18.8°
Maximum altitude 00:31:06 43° 267° (W) 855 3.6 -18.6°
Enters shadow 00:32:05 37° 232° (SW) 953 3.6 -18.6°
